Selinsgrove, PA

7:17 AM EST on December 13, 2017 (GMT -0500)
Penn Valley

Weather History for KSEG - June, 2014

Change the Weather History Date:

Monday, June 9, 2014

  Actual Average (KIPT) Record (KIPT)
Temperature  
Mean Temperature 70 °F -  
Max Temperature 77 °F 75 °F 99 °F (1933)
Min Temperature 66 °F 54 °F 37 °F (1983)
Cooling Degree Days 6    
Growing Degree Days 20 (Base 50)    
Moisture  
Dew Point 66 °F    
Average Humidity 88    
Maximum Humidity 97    
Minimum Humidity 74    
Precipitation  
Precipitation 0.02 in - - ()
Sea Level Pressure  
Sea Level Pressure 29.89 in    
Wind  
Wind Speed 1 mph (North)    
Max Wind Speed 6 mph    
Max Gust Speed -    
Visibility 6 miles    
Events Rain    
Averages and records for this station are not official NWS values.
T = Trace of Precipitation, MM = Missing Value Source: NWS Daily Summary

Daily Weather History Graph

Daily Weather History Graph

Search for Another Location

Airport or City:

Trip Planner

Search our weather history database for the weather conditions in past years. The results will help you decide how hot, cold, wet, or windy it might be!

Date:

Astronomy

Jun. 09, 2014 Rise Set
Actual Time 5:35 AM EDT 8:37 PM EDT
Civil Twilight 5:02 AM EDT 9:11 PM EDT
Nautical Twilight 4:20 AM EDT 9:53 PM EDT
Astronomical Twilight 3:30 AM EDT 10:43 PM EDT
Moon 4:55 PM EDT (6/9) 3:03 AM EDT (6/9)
Length of Visible Light 16h 08m
Length of Day
15h 02m
Waxing Gibbous, 85% of the Moon is Illuminated
Jun 9
Waxing Gibbous
Jun 13
Full
Jun 19
Last Quarter
Jun 27
New
Jul 5
First Quarter

Hourly Weather History & Observations

Time (EDT) Temp. Dew Point Humidity Pressure Visibility Wind Dir Wind Speed Gust Speed Precip Events Conditions
12:53 AM 66.9 °F 64.9 °F 93% 29.86 in 7.0 mi Calm Calm - 0.02 in   Overcast
1:50 AM 66.2 °F 64.4 °F 94% 29.85 in 9.0 mi Calm Calm - N/A   Mostly Cloudy
1:53 AM 66.9 °F 64.0 °F 90% 29.84 in 9.0 mi Calm Calm - N/A   Mostly Cloudy
2:08 AM 66.9 °F 64.0 °F 90% 29.85 in 8.0 mi Calm Calm - N/A   Mostly Cloudy
2:53 AM 66.9 °F 64.0 °F 90% 29.84 in 8.0 mi Calm Calm - N/A   Overcast
3:53 AM 66.9 °F 64.0 °F 90% 29.84 in 7.0 mi Calm Calm - N/A   Overcast
4:53 AM 68.0 °F 64.9 °F 90% 29.84 in 7.0 mi Calm Calm - N/A   Overcast
5:53 AM 66.9 °F 64.9 °F 93% 29.85 in 6.0 mi Calm Calm - N/A   Overcast
6:53 AM 66.9 °F 64.9 °F 93% 29.87 in 3.0 mi Calm Calm - N/A   Overcast
7:06 AM 66.9 °F 64.9 °F 93% 29.88 in 3.0 mi NNW 5.8 mph - N/A   Overcast
7:27 AM 66.9 °F 64.9 °F 93% 29.89 in 2.0 mi Calm Calm - 0.00 in Rain Light Rain
7:35 AM 66.9 °F 64.9 °F 93% 29.89 in 2.5 mi Calm Calm - 0.00 in Rain Light Rain
7:53 AM 68.0 °F 64.9 °F 90% 29.88 in 4.0 mi Calm Calm - 0.00 in Rain Light Rain
8:19 AM 68.0 °F 66.0 °F 93% 29.90 in 5.0 mi Calm Calm - 0.00 in   Overcast
8:37 AM 68.0 °F 64.9 °F 90% 29.90 in 5.0 mi Calm Calm - 0.00 in   Overcast
8:53 AM 68.0 °F 64.9 °F 90% 29.90 in 5.0 mi Variable 3.5 mph - 0.00 in   Overcast
9:31 AM 70.0 °F 66.0 °F 87% 29.90 in 7.0 mi Calm Calm - N/A   Overcast
9:53 AM 70.0 °F 66.0 °F 87% 29.90 in 6.0 mi Calm Calm - N/A   Overcast
11:53 AM 71.1 °F 66.0 °F 84% 29.91 in 7.0 mi Variable 3.5 mph - N/A   Overcast
12:29 PM 71.1 °F 66.0 °F 84% 29.92 in 5.0 mi Calm Calm - N/A   Haze
12:53 PM 73.0 °F 66.9 °F 81% 29.91 in 6.0 mi Calm Calm - N/A   Haze
1:05 PM 75.0 °F 68.0 °F 79% 29.91 in 6.0 mi Calm Calm - N/A   Haze
1:49 PM 73.4 °F 66.2 °F 78% 29.92 in 7.0 mi Calm Calm - N/A   Overcast
1:53 PM 73.9 °F 66.9 °F 79% 29.91 in 7.0 mi SSW 3.5 mph - N/A   Overcast
4:53 PM 75.9 °F 68.0 °F 76% 29.90 in 7.0 mi Calm Calm - N/A   Mostly Cloudy
5:53 PM 75.9 °F 66.9 °F 74% 29.89 in 8.0 mi East 5.8 mph - N/A   Scattered Clouds
6:53 PM 73.9 °F 66.9 °F 79% 29.90 in 8.0 mi ENE 5.8 mph - N/A   Scattered Clouds
7:53 PM 73.0 °F 66.9 °F 81% 29.90 in 6.0 mi NE 4.6 mph - N/A   Haze
8:53 PM 71.1 °F 66.9 °F 87% 29.90 in 5.0 mi North 3.5 mph - N/A   Clear
9:53 PM 69.1 °F 66.9 °F 93% 29.92 in 4.0 mi NNW 4.6 mph - N/A   Mostly Cloudy
10:53 PM 69.1 °F 66.0 °F 90% 29.93 in 5.0 mi Calm Calm - N/A   Mostly Cloudy
11:53 PM 66.9 °F 66.0 °F 97% 29.93 in 3.0 mi NW 4.6 mph - N/A   Overcast